Location: Newark
(39.6867°N, 100.6772°W)
Time: 10:05:42
(UTC+00:00)

deb Explorer IX - Pass Details

Date: 21 October 2019
Orbit: 546 x 1105 km, 38.8° (Epoch: 17 November)

Event Time Altitude Azimuth Distance (km) Brightness Sun altitude
Rises 01:12:10 0° 280° (W) 3,638 ? -15.3°
Reaches altitude 10° 01:14:59 10° 270° (W) 2,765 ? -15.8°
Maximum altitude 01:20:51 32° 211° (SSW) 1,748 ? -16.9°
Drops below altitude 10° 01:27:05 10° 152° (SSE) 2,945 ? -18.1°
Enters shadow 01:28:29 - 147° (SSE) 3,366 ? -18.4°
